• în România
  • Lista ţărilor
  • Pe 7 zile
  • Temperatura apei
  • Hartă satelitară
  • Meteo pe hartă
  • Widget-uri
  • user-avatar
    Intrare

    Meteo pe oră la Adelaide

    Astăzi, 28 Mai, Duminică

    Timp Temperatura Precipitaţii Vânt Presiune Umiditate
    00:00 +12°C° 0,1 mm 5 m/s 756 mmHg 77%
    01:00 +12°C° 0 mm 5 m/s 756 mmHg 76%
    02:00 +10°C° 0 mm 5 m/s 756 mmHg 76%
    03:00 +10°C° 0 mm 5 m/s 756 mmHg 75%
    04:00 +10°C° 0 mm 5 m/s 756 mmHg 75%
    05:00 +10°C° 0 mm 5 m/s 756 mmHg 74%
    06:00 +10°C° 0 mm 5 m/s 756 mmHg 74%
    07:00 +12°C° 0,1 mm 5 m/s 757 mmHg 71%
    08:00 +13°C° 0,1 mm 6 m/s 757 mmHg 69%
    09:00 +14°C° 0 mm 7 m/s 757 mmHg 66%
    10:00 +14°C° 0,2 mm 7 m/s 757 mmHg 64%
    11:00 +14°C° 0,2 mm 6 m/s 757 mmHg 62%
    12:00 +15°C° 0,2 mm 6 m/s 757 mmHg 60%
    13:00 +15°C° 0,1 mm 6 m/s 757 mmHg 59%
    14:00 +15°C° 0,1 mm 6 m/s 758 mmHg 58%
    15:00 +14°C° 0 mm 6 m/s 758 mmHg 58%
    16:00 +14°C° 0 mm 5 m/s 758 mmHg 60%
    17:00 +13°C° 0 mm 4 m/s 759 mmHg 62%
    18:00 +12°C° 0 mm 4 m/s 759 mmHg 65%
    19:00 +12°C° 0 mm 4 m/s 759 mmHg 67%
    20:00 +11°C° 0 mm 3 m/s 760 mmHg 69%
    21:00 +11°C° 0 mm 3 m/s 760 mmHg 71%
    22:00 +11°C° 0 mm 3 m/s 760 mmHg 72%
    23:00 +10°C° 0 mm 3 m/s 761 mmHg 74%

    Mâine, 29 Mai, Luni

    Timp Temperatura Precipitaţii Vânt Presiune Umiditate
    00:00 +10°C° 0 mm 2 m/s 761 mmHg 76%
    01:00 +10°C° 0 mm 2 m/s 761 mmHg 77%
    02:00 +10°C° 0 mm 2 m/s 761 mmHg 78%
    03:00 +10°C° 0 mm 2 m/s 761 mmHg 80%
    04:00 +10°C° 0 mm 2 m/s 761 mmHg 82%
    05:00 +10°C° 0 mm 2 m/s 762 mmHg 84%
    06:00 +10°C° 0 mm 2 m/s 762 mmHg 87%
    07:00 +12°C° 0 mm 2 m/s 762 mmHg 83%
    08:00 +12°C° 0 mm 3 m/s 763 mmHg 79%
    09:00 +14°C° 0 mm 3 m/s 763 mmHg 75%
    10:00 +14°C° 0,1 mm 3 m/s 763 mmHg 75%
    11:00 +14°C° 0,1 mm 4 m/s 762 mmHg 74%
    12:00 +15°C° 0,1 mm 4 m/s 762 mmHg 74%
    13:00 +15°C° 0,2 mm 4 m/s 762 mmHg 75%
    14:00 +16°C° 0,2 mm 3 m/s 762 mmHg 75%
    15:00 +16°C° 0,2 mm 3 m/s 762 mmHg 76%
    16:00 +14°C° 0,1 mm 3 m/s 762 mmHg 79%
    17:00 +13°C° 0,1 mm 3 m/s 762 mmHg 82%
    18:00 +12°C° 0,1 mm 3 m/s 763 mmHg 85%
    19:00 +12°C° 0 mm 3 m/s 763 mmHg 85%
    20:00 +12°C° 0 mm 3 m/s 763 mmHg 86%
    21:00 +12°C° 0 mm 3 m/s 764 mmHg 86%
    22:00 +12°C° 0 mm 3 m/s 764 mmHg 86%
    23:00 +12°C° 0 mm 3 m/s 764 mmHg 86%

    Poimâine, 30 Mai, Marţi

    Timp Temperatura Precipitaţii Vânt Presiune Umiditate
    00:00 +12°C° 0 mm 3 m/s 764 mmHg 86%
    01:00 +12°C° 0,1 mm 3 m/s 764 mmHg 87%
    02:00 +12°C° 0,1 mm 3 m/s 764 mmHg 87%
    03:00 +12°C° 0,1 mm 3 m/s 764 mmHg 88%
    04:00 +12°C° 0,2 mm 3 m/s 764 mmHg 88%
    05:00 +12°C° 0,2 mm 4 m/s 764 mmHg 89%
    06:00 +12°C° 0,2 mm 4 m/s 765 mmHg 89%
    07:00 +12°C° 0 mm 4 m/s 766 mmHg 84%
    08:00 +13°C° 0 mm 4 m/s 766 mmHg 78%
    09:00 +13°C° 0 mm 4 m/s 767 mmHg 73%
    10:00 +14°C° 0 mm 4 m/s 767 mmHg 66%
    11:00 +14°C° 0 mm 4 m/s 767 mmHg 59%
    12:00 +15°C° 0 mm 4 m/s 767 mmHg 53%
    13:00 +14°C° 0 mm 4 m/s 767 mmHg 52%
    14:00 +14°C° 0 mm 4 m/s 767 mmHg 52%
    15:00 +14°C° 0 mm 4 m/s 767 mmHg 51%
    16:00 +12°C° 0 mm 4 m/s 768 mmHg 55%
    17:00 +11°C° 0 mm 3 m/s 768 mmHg 60%
    18:00 +10°C° 0 mm 3 m/s 769 mmHg 64%
    19:00 +10°C° 0 mm 3 m/s 769 mmHg 66%
    20:00 +9°C° 0 mm 3 m/s 770 mmHg 68%
    21:00 +9°C° 0 mm 2 m/s 770 mmHg 69%
    22:00 +8°C° 0 mm 2 m/s 770 mmHg 72%
    23:00 +8°C° 0 mm 2 m/s 770 mmHg 74%

    31 Mai, Miercuri

    Timp Temperatura Precipitaţii Vânt Presiune Umiditate
    00:00 +8°C° 0 mm 2 m/s 770 mmHg 76%
    01:00 +7°C° 0 mm 2 m/s 770 mmHg 78%
    02:00 +7°C° 0 mm 2 m/s 770 mmHg 80%
    03:00 +7°C° 0 mm 1 m/s 770 mmHg 81%
    04:00 +7°C° 0 mm 1 m/s 771 mmHg 82%
    05:00 +7°C° 0 mm 1 m/s 771 mmHg 84%
    06:00 +7°C° 0 mm 1 m/s 771 mmHg 85%
    07:00 +8°C° 0 mm 1 m/s 772 mmHg 77%
    08:00 +10°C° 0 mm 1 m/s 772 mmHg 68%
    09:00 +12°C° 0 mm 1 m/s 772 mmHg 60%
    10:00 +13°C° 0 mm 1 m/s 772 mmHg 56%
    11:00 +14°C° 0 mm 1 m/s 772 mmHg 51%
    12:00 +16°C° 0 mm 1 m/s 771 mmHg 47%
    13:00 +15°C° 0 mm 1 m/s 771 mmHg 48%
    14:00 +15°C° 0 mm 1 m/s 771 mmHg 48%
    15:00 +15°C° 0 mm 1 m/s 771 mmHg 49%
    16:00 +13°C° 0 mm 1 m/s 771 mmHg 56%
    17:00 +12°C° 0 mm 1 m/s 771 mmHg 63%
    18:00 +9°C° 0 mm 2 m/s 772 mmHg 70%
    19:00 +9°C° 0 mm 2 m/s 772 mmHg 71%
    20:00 +8°C° 0 mm 2 m/s 772 mmHg 73%
    21:00 +8°C° 0 mm 2 m/s 772 mmHg 74%
    22:00 +8°C° 0 mm 2 m/s 772 mmHg 74%
    23:00 +7°C° 0 mm 2 m/s 772 mmHg 75%

    1 Iunie, Joi

    Timp Temperatura Precipitaţii Vânt Presiune Umiditate
    00:00 +7°C° 0 mm 2 m/s 772 mmHg 76%
    01:00 +7°C° 0 mm 2 m/s 772 mmHg 76%
    02:00 +7°C° 0 mm 2 m/s 772 mmHg 76%
    03:00 +7°C° 0 mm 2 m/s 772 mmHg 77%
    04:00 +7°C° 0 mm 2 m/s 772 mmHg 77%
    05:00 +5°C° 0 mm 3 m/s 772 mmHg 76%
    06:00 +5°C° 0 mm 3 m/s 773 mmHg 76%
    07:00 +8°C° 0 mm 3 m/s 773 mmHg 70%
    08:00 +9°C° 0 mm 3 m/s 773 mmHg 64%
    09:00 +10°C° 0 mm 3 m/s 773 mmHg 58%
    10:00 +12°C° 0 mm 3 m/s 773 mmHg 52%
    11:00 +14°C° 0 mm 2 m/s 773 mmHg 46%
    12:00 +16°C° 0 mm 2 m/s 772 mmHg 41%
    13:00 +16°C° 0 mm 2 m/s 772 mmHg 40%
    14:00 +16°C° 0 mm 1 m/s 771 mmHg 40%
    15:00 +16°C° 0 mm 1 m/s 771 mmHg 39%
    16:00 +14°C° 0 mm 1 m/s 771 mmHg 46%
    17:00 +11°C° 0 mm 1 m/s 771 mmHg 54%
    18:00 +9°C° 0 mm 1 m/s 772 mmHg 61%
    19:00 +8°C° 0 mm 2 m/s 772 mmHg 61%
    20:00 +8°C° 0 mm 2 m/s 772 mmHg 60%
    21:00 +8°C° 0 mm 2 m/s 772 mmHg 60%
    22:00 +8°C° 0 mm 2 m/s 772 mmHg 60%
    23:00 +8°C° 0 mm 2 m/s 772 mmHg 60%

    2 Iunie, Vineri

    Timp Temperatura Precipitaţii Vânt Presiune Umiditate
    00:00 +8°C° 0 mm 3 m/s 771 mmHg 60%
    01:00 +8°C° 0 mm 2 m/s 771 mmHg 61%
    02:00 +7°C° 0 mm 2 m/s 771 mmHg 61%
    03:00 +7°C° 0 mm 2 m/s 771 mmHg 62%
    04:00 +7°C° 0 mm 2 m/s 771 mmHg 63%
    05:00 +7°C° 0 mm 2 m/s 772 mmHg 63%
    06:00 +7°C° 0 mm 2 m/s 772 mmHg 64%
    07:00 +8°C° 0 mm 2 m/s 772 mmHg 59%
    08:00 +10°C° 0 mm 2 m/s 772 mmHg 54%
    09:00 +12°C° 0 mm 2 m/s 772 mmHg 50%
    10:00 +14°C° 0 mm 2 m/s 772 mmHg 45%
    11:00 +15°C° 0 mm 2 m/s 772 mmHg 41%
    12:00 +17°C° 0 mm 2 m/s 771 mmHg 36%
    13:00 +18°C° 0 mm 1 m/s 771 mmHg 36%
    14:00 +18°C° 0 mm 1 m/s 770 mmHg 36%
    15:00 +18°C° 0 mm 1 m/s 770 mmHg 36%
    16:00 +14°C° 0 mm 1 m/s 770 mmHg 47%
    17:00 +11°C° 0 mm 1 m/s 771 mmHg 58%
    18:00 +9°C° 0 mm 1 m/s 771 mmHg 69%
    19:00 +9°C° 0 mm 1 m/s 771 mmHg 67%
    20:00 +9°C° 0 mm 1 m/s 771 mmHg 64%
    21:00 +9°C° 0 mm 1 m/s 771 mmHg 62%
    22:00 +8°C° 0 mm 2 m/s 771 mmHg 60%
    23:00 +8°C° 0 mm 2 m/s 771 mmHg 59%
    Arată mai mult